Location: Eppenbrunn
(49.1158°N, 7.5601°E)
Time: 18:32:42
(UTC+00:00)

Cosmos 540 Rocket - Pass Details

Date: 09 April 2020
Orbit: 741 x 753 km, 74.1° (Epoch: 02 June)

Event Time Altitude Azimuth Distance (km) Brightness Sun altitude
Rises 21:26:48 0° 333° (NNW) 3,213 8.0 -26.7°
Reaches altitude 10° 21:29:13 10° 328° (NNW) 2,282 7.0 -27.0°
Maximum altitude 21:34:13 52° 254° (WSW) 934 3.9 -27.4°
Enters shadow 21:34:19 52° 250° (WSW) 935 3.9 -27.4°
